Location: Treviso
(45.6669°N, 12.2430°E)
Time: 22:47:01
(UTC+01:00)

ISS - Pass Details

Date: 22 November 2023
Orbit: 415 x 417 km, 51.6° (Epoch: 06 December)

Event Time Altitude Azimuth Distance (km) Brightness Sun altitude
Rises 19:03:22 0° 279° (W) 2,361 1.3 -25.7°
Reaches altitude 10° 19:05:38 10° 291° (WNW) 1,498 -0.1 -26.1°
Enters shadow 19:07:04 20° 309° (NW) 1,037 -1.3 -26.3°
